This is the latest recevied weather packets stored in our database for station/object WR9A-13. If no packets are shown the sender has not sent any weather packets the latest 10 day(s).
| Time | Temp. | Humidity | Pressure | Rain* | Wind** | Luminosity | Snow |
|---|---|---|---|---|---|---|---|
| 1787844921 | 25° C | 73% | 1017.2 hPa | 0 mm | - | - | - |
| 1787844638 | 25.56° C | 72% | 1017.2 hPa | 0 mm | - | - | - |
| 1787844327 | 25.56° C | 73% | 1017.1 hPa | 0 mm | - | - | - |
| 1787844014 | 25° C | 75% | 1017.1 hPa | 0 mm | - | - | - |
| 1787843731 | 25° C | 75% | 1017 hPa | 0 mm | - | - | - |
| 1787843428 | 25° C | 75% | 1016.9 hPa | 0 mm | - | - | - |
| 1787843116 | 25° C | 75% | 1016.8 hPa | 0 mm | - | - | - |
| 1787842827 | 25° C | 77% | 1016.8 hPa | 0 mm | - | - | - |
| 1787842515 | 25° C | 77% | 1016.8 hPa | 0 mm | - | - | - |
| 1787842232 | 24.44° C | 79% | 1016.8 hPa | 0 mm | - | - | - |
| 1787841919 | 24.44° C | 79% | 1016.7 hPa | 0 mm | - | - | - |
| 1787841616 | 23.89° C | 79% | 1016.6 hPa | 0 mm | - | - | - |
| 1787841325 | 23.89° C | 80% | 1016.3 hPa | 0 mm | - | - | - |
| 1787841022 | 23.89° C | 80% | 1016.4 hPa | 0 mm | - | - | - |
| 1787840740 | 23.33° C | 80% | 1016.4 hPa | 0 mm | - | - | - |
| 1787840428 | 23.33° C | 82% | 1016.3 hPa | 0 mm | - | - | - |
| 1787840115 | 22.78° C | 82% | 1016.1 hPa | 0 mm | - | - | - |
| 1787839833 | 22.78° C | 82% | 1016.1 hPa | 0 mm | - | - | - |
| 1787839522 | 22.78° C | 83% | 1016.1 hPa | 0 mm | - | - | - |
| 1787839228 | 22.22° C | 84% | 1016.1 hPa | 0 mm | - | - | - |
| 1787838924 | 22.22° C | 85% | 1016.1 hPa | 0 mm | - | - | - |
| 1787838632 | 22.22° C | 85% | 1016 hPa | 0 mm | - | - | - |
| 1787838329 | 21.67° C | 87% | 1016.2 hPa | 0 mm | - | - | - |
| 1787838016 | 21.11° C | 88% | 1016 hPa | 0 mm | - | - | - |
| 1787837733 | 21.11° C | 89% | 1016 hPa | 0 mm | - | - | - |
* Rain latest hour (hover to see other rain measurements)
** Current wind speed in m/s (hover to see current wind gust speed)